Location: Centerville
(32.8776°N, 96.6203°W)
Time: 05:41:59
(UTC+00:00)

Cosmos 1408 Rocket - Pass Details

Date: 17 June 2021
Orbit: 600 x 632 km, 82.6° (Epoch: 29 July)

Event Time Altitude Azimuth Distance (km) Brightness Sun altitude
Exits shadow 10:16:17 15° 214° (SW) 1,677 5.2 -11.7°
Maximum altitude 10:19:36 41° 279° (W) 916 4.1 -11.1°
Drops below altitude 10° 10:23:49 10° 350° (N) 2,014 6.6 -10.4°
Sets 10:26:11 0° 358° (N) 2,927 7.5 -10.0°
